Location: Auckland
(36.8670°S, 174.7670°E)
Time: 22:03:42
(UTC+13:00)

Cosmos 2237 Rocket - Pass Details

Date: 24 January 2019
Orbit: 833 x 851 km, 71.0° (Epoch: 15 February)

Event Time Altitude Azimuth Distance (km) Brightness Sun altitude
Exits shadow 23:50:54 27° 120° (ESE) 1,591 3.6 -29.0°
Drops below altitude 10° 23:53:49 10° 141° (SE) 2,486 4.9 -29.2°
Sets 23:56:26 0° 149° (SSE) 3,425 5.8 -29.5°
